| time (UTC) | temp F | wind direction | speed MPH | gust MPH | rain 1hr in | rain 24hr in | rain mn in | humidity % | barometer mb |
| 20260831135402 | 49 | 106 | 0.0 | 0.0 | 0.00 | 0.00 | 0.00 | 98 | 1012.5 |
| 20260831134348 | 49 | 107 | 0.0 | 0.0 | 0.00 | 0.00 | 0.00 | 98 | 1012.4 |
| 20260831133337 | 49 | 106 | 0.0 | 0.0 | 0.00 | 0.00 | 0.00 | 97 | 1012.3 |
| 20260831132313 | 49 | 107 | 0.0 | 0.0 | 0.00 | 0.00 | 0.00 | 97 | 1012.3 |
| 20260831131257 | 49 | 107 | 0.0 | 0.0 | 0.00 | 0.00 | 0.00 | 97 | 1012.5 |
| 20260831130235 | 49 | 107 | 0.0 | 0.0 | 0.00 | 0.00 | 0.00 | 97 | 1012.5 |
| 20260831125222 | 49 | 107 | 0.0 | 0.0 | 0.00 | 0.00 | 0.00 | 97 | 1012.6 |
| 20260831124222 | 50 | 107 | 0.0 | 0.0 | 0.00 | 0.00 | 0.00 | 97 | 1012.7 |
| 20260831123206 | 51 | 107 | 0.0 | 0.0 | 0.00 | 0.00 | 0.00 | 97 | 1012.7 |
| 20260831122200 | 51 | 107 | 0.0 | 0.0 | 0.00 | 0.00 | 0.00 | 97 | 1012.8 |
| 20260831121140 | 51 | 107 | 0.0 | 0.0 | 0.00 | 0.00 | 0.00 | 96 | 1012.9 |
| 20260831120130 | 51 | 107 | 0.0 | 0.0 | 0.00 | 0.00 | 0.00 | 96 | 1012.7 |
| 20260831115112 | 51 | 107 | 0.0 | 0.0 | 0.00 | 0.00 | 0.00 | 96 | 1013.0 |
| 20260831114044 | 51 | 109 | 0.0 | 0.0 | 0.00 | 0.00 | 0.00 | 96 | 1012.8 |
| 20260831113038 | 51 | 106 | 0.0 | 0.0 | 0.00 | 0.00 | 0.00 | 96 | 1013.0 |
| 20260831112031 | 51 | 106 | 0.0 | 0.0 | 0.00 | 0.00 | 0.00 | 95 | 1013.1 |
| 20260831111021 | 51 | 106 | 0.0 | 0.0 | 0.00 | 0.00 | 0.00 | 95 | 1013.0 |
| 20260831110007 | 52 | 106 | 0.0 | 0.0 | 0.00 | 0.00 | 0.00 | 95 | 1013.2 |
| 20260831105000 | 51 | 106 | 0.0 | 0.0 | 0.00 | 0.00 | 0.00 | 95 | 1013.2 |
| 20260831103948 | 52 | 106 | 0.0 | 0.0 | 0.00 | 0.00 | 0.00 | 95 | 1013.4 |
| 20260831102919 | 51 | 106 | 0.0 | 0.0 | 0.00 | 0.00 | 0.00 | 95 | 1013.5 |
| 20260831101902 | 52 | 106 | 0.0 | 0.0 | 0.00 | 0.00 | 0.00 | 94 | 1013.5 |
| 20260831100902 | 52 | 109 | 0.0 | 0.0 | 0.00 | 0.00 | 0.00 | 94 | 1013.5 |
| 20260831095839 | 52 | 109 | 0.0 | 0.0 | 0.00 | 0.00 | 0.00 | 93 | 1013.6 |
| 20260831094837 | 52 | 109 | 0.0 | 0.0 | 0.00 | 0.00 | 0.00 | 93 | 1013.7 |
| 20260831093830 | 53 | 109 | 0.0 | 0.0 | 0.00 | 0.00 | 0.00 | 92 | 1014.0 |
| 20260831092817 | 53 | 109 | 0.0 | 0.0 | 0.00 | 0.00 | 0.00 | 92 | 1014.0 |
| 20260831091753 | 53 | 108 | 0.0 | 0.0 | 0.00 | 0.00 | 0.00 | 92 | 1014.1 |
| 20260831090721 | 53 | 108 | 0.0 | 0.0 | 0.00 | 0.00 | 0.00 | 91 | 1014.2 |
| 20260831085706 | 53 | 108 | 0.0 | 0.0 | 0.00 | 0.00 | 0.00 | 92 | 1014.2 |
| 20260831084704 | 53 | 108 | 0.0 | 0.0 | 0.00 | 0.00 | 0.00 | 91 | 1014.4 |
| 20260831083631 | 53 | 109 | 0.0 | 0.0 | 0.00 | 0.00 | 0.00 | 91 | 1014.3 |
| 20260831082602 | 53 | 108 | 0.0 | 0.0 | 0.00 | 0.00 | 0.00 | 91 | 1014.5 |
| 20260831081548 | 53 | 108 | 0.0 | 0.0 | 0.00 | 0.00 | 0.00 | 91 | 1014.5 |
| 20260831080529 | 53 | 108 | 0.0 | 0.0 | 0.00 | 0.00 | 0.00 | 91 | 1014.5 |
| 20260831075519 | 54 | 108 | 0.0 | 0.0 | 0.00 | 0.00 | 0.00 | 90 | 1014.6 |
| 20260831074453 | 54 | 108 | 0.0 | 0.0 | 0.00 | 0.00 | 0.00 | 89 | 1014.7 |
| 20260831073450 | 54 | 108 | 0.0 | 0.0 | 0.00 | 0.00 | 0.00 | 89 | 1014.8 |
| 20260831072429 | 54 | 108 | 0.0 | 0.0 | 0.00 | 0.00 | 0.00 | 89 | 1014.8 |
| 20260831071422 | 55 | 108 | 0.0 | 0.0 | 0.00 | 0.00 | 0.00 | 87 | 1014.9 |
| 20260831070348 | 55 | 108 | 0.0 | 0.0 | 0.00 | 0.00 | 0.00 | 86 | 1015.1 |
| 20260831065331 | 55 | 109 | 0.0 | 0.0 | 0.00 | 0.00 | 0.00 | 85 | 1014.9 |
| 20260831064307 | 56 | 109 | 0.0 | 0.0 | 0.00 | 0.00 | 0.00 | 84 | 1015.1 |
| 20260831063248 | 56 | 109 | 0.0 | 0.0 | 0.00 | 0.00 | 0.00 | 83 | 1015.3 |
| 20260831062233 | 58 | 109 | 0.0 | 0.0 | 0.00 | 0.00 | 0.00 | 80 | 1015.5 |
| 20260831061222 | 58 | 109 | 0.0 | 0.0 | 0.00 | 0.00 | 0.00 | 79 | 1015.6 |
| 20260831060155 | 58 | 107 | 0.0 | 0.0 | 0.00 | 0.00 | 0.00 | 79 | 1015.4 |
| 20260831055134 | 58 | 105 | 0.0 | 0.0 | 0.00 | 0.00 | 0.00 | 78 | 1015.5 |
| 20260831054113 | 58 | 105 | 0.0 | 0.0 | 0.00 | 0.00 | 0.00 | 78 | 1015.6 |
| 20260831053038 | 59 | 103 | 0.0 | 0.0 | 0.00 | 0.00 | 0.00 | 77 | 1015.8 |
| 20260831052034 | 60 | 102 | 0.0 | 0.0 | 0.00 | 0.00 | 0.00 | 75 | 1016.0 |
| 20260831051019 | 60 | 102 | 0.0 | 0.0 | 0.00 | 0.00 | 0.00 | 74 | 1015.8 |
| 20260831050014 | 60 | 102 | 0.0 | 0.0 | 0.00 | 0.00 | 0.00 | 73 | 1015.9 |
| 20260831044944 | 60 | 100 | 0.0 | 0.0 | 0.00 | 0.00 | 0.00 | 72 | 1016.1 |
| 20260831043910 | 61 | 103 | 0.0 | 0.0 | 0.00 | 0.00 | 0.00 | 71 | 1016.0 |
| 20260831042902 | 61 | 102 | 0.0 | 0.0 | 0.00 | 0.00 | 0.00 | 70 | 1016.1 |
| 20260831041841 | 62 | 103 | 0.0 | 0.0 | 0.00 | 0.00 | 0.00 | 69 | 1016.0 |
| 20260831040822 | 61 | 95 | 1.0 | 1.0 | 0.00 | 0.00 | 0.00 | 69 | 1016.0 |
| 20260831035822 | 62 | 108 | 0.0 | 0.0 | 0.00 | 0.00 | 0.00 | 68 | 1016.1 |
| 20260831034804 | 62 | 102 | 0.0 | 0.0 | 0.00 | 0.00 | 0.00 | 69 | 1016.0 |
| 20260831033732 | 62 | 83 | 0.0 | 1.0 | 0.00 | 0.00 | 0.00 | 67 | 1016.0 |
| 20260831032722 | 62 | 103 | 0.0 | 0.0 | 0.00 | 0.00 | 0.00 | 67 | 1016.0 |
| 20260831031712 | 62 | 86 | 0.0 | 0.0 | 0.00 | 0.00 | 0.00 | 68 | 1015.9 |
| 20260831030703 | 62 | 105 | 0.0 | 0.0 | 0.00 | 0.00 | 0.00 | 67 | 1015.9 |
| 20260831025656 | 63 | 104 | 0.0 | 0.0 | 0.00 | 0.00 | 0.00 | 65 | 1015.8 |
| 20260831024647 | 64 | 102 | 0.0 | 0.0 | 0.00 | 0.00 | 0.00 | 63 | 1016.0 |
| 20260831023631 | 65 | 107 | 0.0 | 0.0 | 0.00 | 0.00 | 0.00 | 61 | 1016.0 |
| 20260831022603 | 65 | 100 | 0.0 | 0.0 | 0.00 | 0.00 | 0.00 | 59 | 1016.1 |
| 20260831021529 | 66 | 82 | 0.0 | 0.0 | 0.00 | 0.00 | 0.00 | 58 | 1016.2 |
| 20260831020451 | 67 | 115 | 0.0 | 1.0 | 0.00 | 0.00 | 0.00 | 57 | 1016.3 |
| 20260831015427 | 67 | 105 | 0.0 | 0.0 | 0.00 | 0.00 | 0.00 | 56 | 1016.3 |
| 20260831014410 | 69 | 105 | 0.0 | 0.0 | 0.00 | 0.00 | 0.00 | 54 | 1016.3 |
| 20260831013405 | 69 | 74 | 1.0 | 2.0 | 0.00 | 0.00 | 0.00 | 53 | 1016.4 |
| 20260831012359 | 69 | 84 | 2.0 | 3.0 | 0.00 | 0.00 | 0.00 | 53 | 1016.4 |
| 20260831011339 | 70 | 102 | 1.0 | 2.0 | 0.00 | 0.00 | 0.00 | 53 | 1016.4 |
| 20260831010325 | 69 | 85 | 0.0 | 0.0 | 0.00 | 0.00 | 0.00 | 54 | 1016.6 |
| 20260831005242 | 70 | 149 | 1.0 | 2.0 | 0.00 | 0.00 | 0.00 | 54 | 1016.5 |
| 20260831004216 | 70 | 110 | 1.0 | 1.0 | 0.00 | 0.00 | 0.00 | 54 | 1016.5 |
| 20260831003211 | 71 | 101 | 0.0 | 0.0 | 0.00 | 0.00 | 0.00 | 52 | 1016.6 |
| 20260831002157 | 71 | 104 | 1.0 | 2.0 | 0.00 | 0.00 | 0.00 | 52 | 1016.7 |
| 20260831001148 | 72 | 130 | 1.0 | 1.0 | 0.00 | 0.00 | 0.00 | 49 | 1016.9 |
| 20260831000122 | 71 | 93 | 0.0 | 0.0 | 0.00 | 0.00 | 0.00 | 52 | 1017.0 |
| 20260830235119 | 71 | 11 | 4.0 | 6.0 | 0.00 | 0.00 | 0.00 | 52 | 1017.0 |
| 20260830234044 | 71 | 104 | 0.0 | 0.0 | 0.00 | 0.00 | 0.00 | 51 | 1017.1 |
| 20260830233034 | 73 | 98 | 1.0 | 2.0 | 0.00 | 0.00 | 0.00 | 50 | 1017.0 |
| 20260830232029 | 73 | 119 | 0.0 | 0.0 | 0.00 | 0.00 | 0.00 | 49 | 1017.3 |
| 20260830231009 | 73 | 102 | 0.0 | 1.0 | 0.00 | 0.00 | 0.00 | 50 | 1017.0 |
| 20260830225942 | 72 | 114 | 0.0 | 1.0 | 0.00 | 0.00 | 0.00 | 52 | 1017.3 |
| 20260830224939 | 73 | 119 | 0.0 | 1.0 | 0.00 | 0.00 | 0.00 | 50 | 1017.4 |
| 20260830223929 | 73 | 92 | 2.0 | 3.0 | 0.00 | 0.00 | 0.00 | 49 | 1017.5 |
| 20260830222905 | 74 | 130 | 0.0 | 1.0 | 0.00 | 0.00 | 0.00 | 50 | 1017.7 |
| 20260830221857 | 71 | 118 | 0.0 | 0.0 | 0.00 | 0.00 | 0.00 | 52 | 1017.7 |
| 20260830220832 | 73 | 76 | 2.0 | 2.0 | 0.00 | 0.00 | 0.00 | 48 | 1017.6 |
| 20260830215805 | 73 | 123 | 0.0 | 0.0 | 0.00 | 0.00 | 0.00 | 50 | 1017.7 |
| 20260830214805 | 71 | 112 | 0.0 | 0.0 | 0.00 | 0.00 | 0.00 | 51 | 1017.8 |
| 20260830213734 | 72 | 99 | 2.0 | 3.0 | 0.00 | 0.00 | 0.00 | 52 | 1018.2 |
| 20260830212709 | 69 | 97 | 1.0 | 1.0 | 0.00 | 0.00 | 0.00 | 58 | 1018.1 |
| 20260830211645 | 66 | 96 | 1.0 | 2.0 | 0.00 | 0.00 | 0.00 | 62 | 1018.4 |
| 20260830210627 | 66 | 52 | 1.0 | 1.0 | 0.00 | 0.00 | 0.00 | 62 | 1018.5 |
| 20260830205609 | 66 | 103 | 0.0 | 0.0 | 0.00 | 0.00 | 0.00 | 65 | 1018.6 |
| 20260830204609 | 66 | 103 | 0.0 | 0.0 | 0.00 | 0.00 | 0.00 | 65 | 1018.5 |
| 20260830203542 | 68 | 100 | 0.0 | 0.0 | 0.00 | 0.00 | 0.00 | 61 | 1018.8 |
| 20260830202540 | 67 | 80 | 2.0 | 2.0 | 0.00 | 0.00 | 0.00 | 61 | 1018.7 |
| 20260830201538 | 67 | 82 | 1.0 | 1.0 | 0.00 | 0.00 | 0.00 | 63 | 1018.6 |
| 20260830200528 | 66 | 106 | 0.0 | 0.0 | 0.00 | 0.00 | 0.00 | 63 | 1018.8 |
| 20260830195514 | 68 | 73 | 2.0 | 3.0 | 0.00 | 0.00 | 0.00 | 60 | 1018.7 |
| 20260830194513 | 67 | 109 | 0.0 | 0.0 | 0.00 | 0.00 | 0.00 | 63 | 1018.8 |
| 20260830193505 | 67 | 96 | 0.0 | 0.0 | 0.00 | 0.00 | 0.00 | 63 | 1018.9 |
| 20260830192444 | 67 | 261 | 2.0 | 3.0 | 0.00 | 0.00 | 0.00 | 62 | 1018.9 |
| 20260830191421 | 67 | 100 | 1.0 | 1.0 | 0.00 | 0.00 | 0.00 | 63 | 1019.1 |
| 20260830190418 | 67 | 116 | 0.0 | 0.0 | 0.00 | 0.00 | 0.00 | 64 | 1018.9 |
| 20260830185356 | 65 | 107 | 0.0 | 0.0 | 0.00 | 0.00 | 0.00 | 66 | 1019.0 |
| 20260830184337 | 64 | 114 | 0.0 | 0.0 | 0.00 | 0.00 | 0.00 | 68 | 1019.0 |
| 20260830183314 | 63 | 101 | 0.0 | 1.0 | 0.00 | 0.00 | 0.00 | 70 | 1019.1 |
| 20260830182250 | 65 | 108 | 0.0 | 0.0 | 0.00 | 0.00 | 0.00 | 68 | 1019.2 |
| 20260830181234 | 64 | 103 | 0.0 | 0.0 | 0.00 | 0.00 | 0.00 | 71 | 1019.2 |
| 20260830180226 | 62 | 175 | 1.0 | 1.0 | 0.00 | 0.00 | 0.00 | 71 | 1019.2 |
| 20260830175221 | 63 | 106 | 0.0 | 0.0 | 0.00 | 0.00 | 0.00 | 71 | 1019.2 |
| 20260830174159 | 62 | 103 | 0.0 | 0.0 | 0.00 | 0.00 | 0.00 | 73 | 1019.3 |
| 20260830173156 | 61 | 106 | 0.0 | 0.0 | 0.00 | 0.00 | 0.00 | 74 | 1019.2 |
| 20260830172144 | 61 | 103 | 0.0 | 0.0 | 0.00 | 0.00 | 0.00 | 74 | 1019.1 |
| 20260830171121 | 61 | 192 | 2.0 | 3.0 | 0.00 | 0.00 | 0.00 | 75 | 1019.2 |
| 20260830170050 | 60 | 172 | 2.0 | 3.0 | 0.00 | 0.00 | 0.00 | 75 | 1019.1 |
| 20260830165046 | 60 | 114 | 0.0 | 0.0 | 0.00 | 0.00 | 0.00 | 77 | 1019.0 |
| 20260830164040 | 59 | 100 | 0.0 | 0.0 | 0.00 | 0.00 | 0.00 | 78 | 1019.1 |
| 20260830163024 | 59 | 103 | 0.0 | 1.0 | 0.00 | 0.00 | 0.00 | 77 | 1019.3 |
| 20260830162002 | 59 | 108 | 0.0 | 0.0 | 0.00 | 0.00 | 0.00 | 79 | 1019.2 |
| 20260830160954 | 59 | 104 | 0.0 | 0.0 | 0.00 | 0.00 | 0.00 | 79 | 1019.2 |
| 20260830155934 | 58 | 106 | 0.0 | 0.0 | 0.00 | 0.00 | 0.00 | 79 | 1019.2 |
| 20260830154922 | 58 | 106 | 0.0 | 0.0 | 0.00 | 0.00 | 0.00 | 78 | 1019.4 |
| 20260830153857 | 58 | 106 | 0.0 | 0.0 | 0.00 | 0.00 | 0.00 | 81 | 1019.2 |
| 20260830152847 | 57 | 105 | 0.0 | 0.0 | 0.00 | 0.01 | 0.00 | 80 | 1019.3 |
| 20260830151838 | 57 | 106 | 0.0 | 0.0 | 0.00 | 0.01 | 0.00 | 81 | 1019.0 |
| 20260830150834 | 57 | 106 | 0.0 | 0.0 | 0.00 | 0.02 | 0.00 | 82 | 1019.2 |
| 20260830145823 | 56 | 105 | 0.0 | 0.0 | 0.00 | 0.03 | 0.00 | 83 | 1019.2 |
| 20260830144820 | 56 | 105 | 0.0 | 0.0 | 0.00 | 0.04 | 0.00 | 84 | 1019.0 |
| 20260830143808 | 55 | 105 | 0.0 | 0.0 | 0.00 | 0.16 | 0.00 | 85 | 1019.1 |
| 20260830142748 | 55 | 105 | 0.0 | 0.0 | 0.00 | 0.34 | 0.00 | 86 | 1019.0 |
| 20260830141737 | 54 | 105 | 0.0 | 0.0 | 0.00 | 0.35 | 0.00 | 87 | 1018.9 |
| 20260830140721 | 54 | 105 | 0.0 | 0.0 | 0.00 | 0.35 | 0.00 | 87 | 1018.6 |